This demonstration page uses our WeatherBlox Daily Observations layout. Learn more.

Left ArrowRight Arrow

Hourly Observations for March 28, 2020

Temp ( °F °C ) Dew Point ( °F °C ) Humidity (%) Winds ( mph kmh ) Pressure ( in mb ) Visibility ( mi km ) Precip ( " mm )
12:53 am 00:53 Partly Cloudy 57 13.9 55 12.8 93 93 E 10 17 29.76 1008 10 16.0934 N/A
1:53 am 01:53 Clear 57 13.9 55 12.8 93 93 N N/A 29.8 1009 10 16.0934 0.001 0.001
2:53 am 02:53 Cloudy 58 14.4 56 13.3 93 93 N N/A 29.82 1010 10 16.0934 N/A
3:53 am 03:53 Clear 56 13.3 55 12.8 97 97 N N/A 29.76 1008 8 12.87472 N/A
4:53 am 04:53 Mostly Cloudy with Mist and Fog 55 12.8 54 12.2 96 96 N N/A 29.76 1008 6 9.65604 N/A
5:30 am 05:30 Partly Cloudy with Mist and Fog 53 11.7 53 11.7 100 100 N N/A 29.75 1008 1.75 2.816345 N/A
5:44 am 05:44 Mostly Clear with Mist and Fog 53 11.7 53 11.7 100 100 N N/A 29.75 1008 2 3.21868 N/A
5:53 am 05:53 Mostly Clear with Mist and Fog 54 12.2 53 11.7 97 97 N N/A 29.75 1007 4 6.43736 N/A
6:53 am 06:53 Clear 58 14.4 57 13.9 97 97 E 6 9 29.75 1007 7 11.26538 N/A
7:53 am 07:53 Sunny with Mist and Fog 60 15.6 58 14.4 93 93 E 6 9 29.75 1007 5 8.0467 N/A
8:53 am 08:53 Sunny 71 21.7 63 17.2 76 76 SW 10 17 29.74 1007 10 16.0934 N/A
9:53 am 09:53 Sunny 74 23.3 64 17.8 71 71 SW 10 17 29.74 1007 10 16.0934 N/A
10:53 am 10:53 Partly Cloudy 74 23.3 64 17.8 71 71 SW 10 17 29.75 1008 10 16.0934 N/A
11:53 am 11:53 Mostly Cloudy 75 23.9 64 17.8 69 69 WSW 10 17 29.75 1008 10 16.0934 N/A
12:53 pm 12:53 Mostly Cloudy 76 24.4 64 17.8 67 67 SW 13 20 29.76 1008 10 16.0934 N/A
1:53 pm 13:53 Cloudy 75 23.9 64 17.8 69 69 SSW 5 7 29.76 1008 10 16.0934 0.001 0.001
2:17 pm 14:17 Cloudy with Nearby Thunderstorms 75 23.9 65 18.3 71 71 SW 7 11 29.75 1007 9 14.48406 0.01 0.254
2:42 pm 14:42 Mostly Cloudy 76 24.4 66 18.9 72 72 SW 10 17 29.75 1007 10 16.0934 0.01 0.254
2:53 pm 14:53 Mostly Cloudy 76 24.4 64 17.8 67 67 WSW 8 13 29.75 1008 10 16.0934 0.01 0.254
3:53 pm 15:53 Mostly Cloudy 76 24.4 64 17.8 67 67 W 7 11 29.76 1008 10 16.0934 N/A
4:53 pm 16:53 Partly Cloudy 78 25.6 65 18.3 64 64 SW 5 7 29.75 1007 10 16.0934 N/A
5:53 pm 17:53 Cloudy 78 25.6 65 18.3 64 64 N N/A 29.74 1007 10 16.0934 N/A
6:53 pm 18:53 Cloudy with Light Rain 77 25 64 17.8 64 64 SSW 7 11 29.75 1007 10 16.0934 0.001 0.001
7:53 pm 19:53 Sunny 76 24.4 63 17.2 64 64 S 7 11 29.75 1008 10 16.0934 0.001 0.001
8:53 pm 20:53 Clear 74 23.3 62 16.7 67 67 N N/A 29.73 1007 10 16.0934 N/A
9:53 pm 21:53 Clear 73 22.8 62 16.7 69 69 VRB 3 6 29.75 1007 10 16.0934 N/A
10:53 pm 22:53 Clear 73 22.8 61 16.1 66 66 S 6 9 29.74 1007 10 16.0934 N/A
11:43 pm 23:43 Cloudy with Nearby Thunderstorms 71 21.7 62 16.7 73 73 WSW 8 13 29.77 1008 6 9.65604 0.01 0.254
11:53 pm 23:53 Cloudy with Nearby Thunderstorms 69 20.6 63 17.2 81 81 SW 6 9 29.78 1009 2.5 4.02335 0.05 1.27

Powered by AerisWeather